Regional Weather Roundup
Issued by NWS State College, PA

Home | Current Version | Previous Version | Graphics & Text | Print | Product List | Glossary On
Versions: 1 2 3 4 5 6 7 8 9 10 11 12 13 14 15 16 17 18 19 20 21 22 23 24 25 26 27 28 29 30 31 32 33 34 35 36 37 38 39 40 41 42 43 44 45 46 47 48 49 50
000
ASUS41 KCTP 211410
RWRCTP

REGIONAL WEATHER ROUNDUP
NATIONAL WEATHER SERVICE STATE COLLEGE PA
1000 AM EDT SAT APR 21 2018

Note: "fair" indicates few or no clouds below 12,000 feet with no
significant weather and/or obstructions to visibility.

* = STATION THAT DOES NOT REPORT PRECIPITATION /E.G. RAIN...SNOW...ETC/
    THUNDER OR FOG.

PAZ002>004-007>009-013>016-020>023-029>032-211500-
WESTERN PENNSYLVANIA

CITY           SKY/WX    TMP DP  RH WIND       PRES   REMARKS
ERIE           FAIR      42  30  62 CALM      30.49F
MEADVILLE      FAIR      41  29  62 VRB3      30.46F
FRANKLIN*      FAIR      41  27  57 CALM      30.46F
NEW CASTLE     FAIR      42  27  55 S3        30.48F
BEAVER COUNTY  SUNNY     41  27  56 CALM      30.47F
BUTLER*        FAIR      42  27  55 CALM      30.47F
PITTSBURGH INT PTSUNNY   42  25  50 CALM      30.46F
PITTSBURGH     FAIR      42  28  57 E3        30.46F
INDIANA*       SUNNY     41  27  56 CALM      30.50S
LATROBE        MOSUNNY   41  25  52 CALM      30.48F
WASHINGTON CO* FAIR      45  27  49 NE8       30.48F
$$

PAZ004>006-010>012-017>019-024>028-033>037-041-042-045-046-049>053-211500-
CENTRAL PENNSYLVANIA

CITY           SKY/WX    TMP DP  RH WIND       PRES   REMARKS
BRADFORD       FAIR      41  22  46 N3        30.44R
DUBOIS         FAIR      40  26  57 CALM      30.44S
CLEARFIELD     FAIR      41  27  57 CALM      30.46S
JOHNSTOWN      FAIR      40  26  57 VRB3      30.42S
ALTOONA        FAIR      43  25  49 CALM      30.46S
STATE COLLEGE  SUNNY     41  27  56 CALM      30.46S
WILLIAMSPORT   FAIR      44  25  47 W9        30.46F
SELINSGROVE    FAIR      44  29  55 VRB5      30.48S
FT INDIANTOWN  FAIR      48  25  40 CALM      30.46S
CAPITAL CITY   FAIR      49  29  46 NW5       30.48S
HARRISBURG     PTSUNNY   46  28  49 NW7       30.48S
YORK           FAIR      45  28  51 NW3       30.48S
$$

PAZ038>040-043-044-047-048-054-055-060>062-067>071-211500-
EASTERN PENNSYLVANIA

CITY           SKY/WX    TMP DP  RH WIND       PRES   REMARKS
SCRANTON       FAIR      40  26  57 VRB3      30.44R
MOUNT POCONO   FAIR      41  26  55 NW10      30.38R
ALLENTOWN      FAIR      48  26  42 NW7       30.45R
QUAKERTOWN*    SUNNY     46  27  46 NW8       30.45R
READING        FAIR      46  29  51 VRB3      30.46R
LANCASTER      FAIR      46  31  55 W6        30.47S
COATESVILLE    FAIR      45  27  49 W7        30.47S
POTTSTOWN      FAIR      46  27  47 W6        30.47S
BLUE BELL      FAIR      45  30  57 NW3       30.46S
DOYLESTOWN     FAIR      48  28  46 W6        30.43S
WILLOW GROVE   NOT AVBL
NORTH PHILA    FAIR      51  28  41 NW7       30.46S
PHILADELPHIA   PTSUNNY   49  25  39 NW10      30.47R
$$



USA.gov is the U.S. government's official web portal to all federal, state and local government web resources and services.